Location: Follega
(52.8850°N, 5.7362°E)
Time: 07:30:57
(UTC+00:00)

ERS-1 Rocket - Pass Details

Date: 03 October 2020
Orbit: 753 x 757 km, 98.5° (Epoch: 30 October)

Event Time Altitude Azimuth Distance (km) Brightness Sun altitude
Exits shadow 22:38:02 13° 308° (NW) 2,116 5.7 -40.5°
Drops below altitude 10° 22:38:47 10° 315° (NW) 2,298 6.0 -40.6°
Sets 22:41:49 0° 334° (NNW) 3,229 7.1 -40.7°
